Ottumwa, IA

7:23 PM CDT on September 15, 2019 (GMT -0500)
Ottumwa Industrial

Weather History for KOTM - August, 2019

Change the Weather History Date:

Saturday, August 24, 2019

  Actual Average Record
Temperature  
Mean Temperature 67 °F 72 °F  
Max Temperature 76 °F 83 °F 107 °F (1936)
Min Temperature 57 °F 61 °F 43 °F (1942)
Degree Days  
Heating Degree Days 0 0  
Month to date heating degree days 0 0  
Since 1 June heating degree days 4 23  
Since 1 July heating degree days 0 2  
Cooling Degree Days 2 7  
Month to date cooling degree days 206 208  
Year to date cooling degree days 853 787  
Since 1 June cooling degree days 790 723  
Growing Degree Days 15 (Base 50)    
Moisture  
Dew Point 56 °F    
Average Humidity 73    
Maximum Humidity 93    
Minimum Humidity 53    
Precipitation  
Precipitation 0.00 in 0.15 in 1.67 in (2018)
Month to date precipitation 2.88 3.59  
Year to date precipitation 29.40 25.68  
Sea Level Pressure  
Sea Level Pressure 30.16 in    
Wind  
Wind Speed 8 mph (ESE)    
Max Wind Speed 17 mph    
Max Gust Speed 23 mph    
Visibility 10 miles    
Events      
T = Trace of Precipitation, MM = Missing Value Source: NWS Daily Summary

Daily Weather History Graph

Daily Weather History Graph

Search for Another Location

Airport or City:

Astronomy

Aug. 24, 2019 Rise Set
Actual Time 6:28 AM CDT 7:55 PM CDT
Civil Twilight 5:59 AM CDT 8:24 PM CDT
Nautical Twilight 5:24 AM CDT 8:58 PM CDT
Astronomical Twilight 4:47 AM CDT 9:35 PM CDT
Moon 12:20 AM CDT (8/24) 3:13 PM CDT (8/24)
Length of Visible Light 14h 24m
Length of Day
13h 27m
Last Quarter, 39% of the Moon is Illuminated
Aug 24
Last Quarter
Aug 30
New
Sep 5
First Quarter
Sep 13
Full
Sep 21
Last Quarter

Hourly Weather History & Observations

Time (CDT) Temp. Dew Point Humidity Pressure Visibility Wind Dir Wind Speed Gust Speed Precip Events Conditions
12:53 AM 62.1 °F 57.0 °F 84% 30.18 in 10.0 mi East 6.9 mph - N/A   Clear
1:53 AM 61.0 °F 55.9 °F 83% 30.19 in 10.0 mi East 6.9 mph - N/A   Clear
2:53 AM 59.0 °F 55.9 °F 90% 30.19 in 10.0 mi East 6.9 mph - N/A   Clear
3:53 AM 59.0 °F 55.0 °F 87% 30.20 in 10.0 mi East 8.1 mph - N/A   Clear
4:53 AM 57.9 °F 55.0 °F 90% 30.20 in 10.0 mi East 6.9 mph - N/A   Clear
5:53 AM 57.0 °F 54.0 °F 89% 30.20 in 10.0 mi East 6.9 mph - N/A   Clear
6:53 AM 57.0 °F 54.0 °F 89% 30.20 in 10.0 mi East 6.9 mph - N/A   Clear
7:53 AM 57.9 °F 55.0 °F 90% 30.21 in 10.0 mi East 6.9 mph - N/A   Clear
8:53 AM 61.0 °F 55.0 °F 81% 30.22 in 10.0 mi East 9.2 mph - N/A   Clear
9:53 AM 64.0 °F 57.0 °F 78% 30.21 in 10.0 mi East 10.4 mph - N/A   Clear
10:53 AM 68.0 °F 55.9 °F 65% 30.20 in 10.0 mi ESE 9.2 mph - N/A   Clear
11:53 AM 72.0 °F 57.0 °F 59% 30.17 in 10.0 mi East 8.1 mph - N/A   Clear
12:53 PM 73.9 °F 57.9 °F 57% 30.16 in 10.0 mi ESE 11.5 mph 19.6 mph N/A   Scattered Clouds
1:53 PM 73.0 °F 55.9 °F 55% 30.14 in 10.0 mi ESE 10.4 mph - N/A   Mostly Cloudy
3:53 PM 73.0 °F 55.9 °F 55% 30.12 in 10.0 mi ESE 10.4 mph - N/A   Mostly Cloudy
4:53 PM 73.0 °F 57.0 °F 57% 30.12 in 10.0 mi SE 11.5 mph - N/A   Clear
5:53 PM 73.9 °F 57.0 °F 55% 30.12 in 10.0 mi ESE 8.1 mph - N/A   Clear
6:53 PM 72.0 °F 55.9 °F 57% 30.10 in 10.0 mi ESE 8.1 mph - N/A   Clear
7:53 PM 66.0 °F 57.0 °F 73% 30.12 in 10.0 mi ESE 4.6 mph - N/A   Clear
8:53 PM 64.9 °F 57.0 °F 75% 30.12 in 10.0 mi East 5.8 mph - N/A   Clear
9:53 PM 63.0 °F 57.0 °F 81% 30.11 in 10.0 mi ESE 5.8 mph - N/A   Clear
10:53 PM 63.0 °F 57.0 °F 81% 30.10 in 10.0 mi ESE 8.1 mph - N/A   Clear
11:53 PM 63.0 °F 57.0 °F 81% 30.10 in 10.0 mi East 6.9 mph - N/A   Partly Cloudy